Ludington, MI

2:45 AM EST on November 15, 2019 (GMT -0500)
Mason County

Weather History for KLDM - September, 2019

Change the Weather History Date:

Wednesday, September 25, 2019

  Actual Average Record
Temperature  
Mean Temperature 68 °F -  
Max Temperature 72 °F 66 °F 84 °F (2017)
Min Temperature 65 °F 46 °F 32 °F (1971)
Cooling Degree Days 4    
Growing Degree Days 18 (Base 50)    
Moisture  
Dew Point 58 °F    
Average Humidity 69    
Maximum Humidity 83    
Minimum Humidity 52    
Precipitation  
Precipitation 0.00 in - - ()
Sea Level Pressure  
Sea Level Pressure 29.67 in    
Wind  
Wind Speed 15 mph (WSW)    
Max Wind Speed 21 mph    
Max Gust Speed 31 mph    
Visibility 10 miles    
Events      
Averages and records for this station are not official NWS values.
T = Trace of Precipitation, MM = Missing Value Source: NWS Daily Summary

Daily Weather History Graph

Daily Weather History Graph

Search for Another Location

Airport or City:

Astronomy

Sep. 25, 2019 Rise Set
Actual Time 7:36 AM EDT 7:37 PM EDT
Civil Twilight 7:07 AM EDT 8:06 PM EDT
Nautical Twilight 6:33 AM EDT 8:40 PM EDT
Astronomical Twilight 5:59 AM EDT 9:14 PM EDT
Moon 3:18 AM EDT (9/25) 6:19 PM EDT (9/25)
Length of Visible Light 12h 59m
Length of Day
12h 01m
Waning Crescent, 14% of the Moon is Illuminated
Sep 25
Waning Crescent
Sep 28
New
Oct 5
First Quarter
Oct 13
Full
Oct 21
Last Quarter

Hourly Weather History & Observations

Time (EDT) Temp. Dew Point Humidity Pressure Visibility Wind Dir Wind Speed Gust Speed Precip Events Conditions
12:15 AM 70.3 °F 59.9 °F 69% 29.70 in 10.0 mi SSW 17.3 mph 23.0 mph N/A   Clear
12:16 AM 70.3 °F 59.9 °F 69% 29.70 in 10.0 mi SSW 16.1 mph 25.3 mph N/A   Clear
12:35 AM 70.2 °F 59.9 °F 70% 29.70 in 10.0 mi SSW 17.3 mph 24.2 mph N/A   Clear
12:40 AM 70.2 °F 59.9 °F 70% 29.70 in 10.0 mi SSW 16.1 mph 24.2 mph N/A   Clear
12:57 AM 70.0 °F 59.9 °F 70% 29.70 in 10.0 mi SSW 18.4 mph 26.5 mph N/A   Clear
1:16 AM 69.8 °F 60.3 °F 72% 29.70 in 10.0 mi SSW 17.3 mph 27.6 mph N/A   Clear
1:35 AM 69.3 °F 60.6 °F 74% 29.70 in 10.0 mi SSW 17.3 mph 21.9 mph N/A   Clear
1:36 AM 69.1 °F 60.6 °F 74% 29.70 in 10.0 mi SSW 16.1 mph 21.9 mph N/A   Clear
1:55 AM 68.9 °F 60.4 °F 74% 29.69 in 10.0 mi SSW 18.4 mph 26.5 mph N/A   Scattered Clouds
2:19 AM 68.5 °F 60.3 °F 75% 29.68 in 10.0 mi SSW 17.3 mph 24.2 mph N/A   Scattered Clouds
2:37 AM 68.5 °F 60.3 °F 75% 29.68 in 10.0 mi SSW 18.4 mph 25.3 mph N/A   Mostly Cloudy
2:55 AM 68.4 °F 60.1 °F 75% 29.67 in 10.0 mi SSW 18.4 mph 26.5 mph N/A   Overcast
2:56 AM 68.4 °F 60.1 °F 75% 29.67 in 10.0 mi SSW 17.3 mph 26.5 mph N/A   Overcast
3:15 AM 68.4 °F 60.1 °F 75% 29.67 in 10.0 mi SSW 17.3 mph 31.1 mph N/A   Overcast
3:35 AM 68.5 °F 59.9 °F 74% 29.67 in 10.0 mi SW 19.6 mph 28.8 mph N/A   Overcast
3:58 AM 68.5 °F 59.4 °F 72% 29.66 in 10.0 mi SSW 16.1 mph 25.3 mph N/A   Overcast
4:16 AM 68.5 °F 59.0 °F 72% 29.65 in 10.0 mi SSW 17.3 mph 29.9 mph N/A   Overcast
4:35 AM 68.4 °F 59.0 °F 72% 29.64 in 10.0 mi SSW 19.6 mph 28.8 mph N/A   Overcast
4:55 AM 68.5 °F 59.0 °F 72% 29.64 in 10.0 mi SSW 15.0 mph 28.8 mph N/A   Overcast
5:19 AM 68.0 °F 59.2 °F 73% 29.62 in 10.0 mi SSW 15.0 mph 27.6 mph N/A   Overcast
5:37 AM 67.6 °F 59.2 °F 74% 29.60 in 10.0 mi SSW 15.0 mph 24.2 mph N/A   Mostly Cloudy
5:55 AM 68.0 °F 59.5 °F 74% 29.62 in 10.0 mi SSW 17.3 mph 25.3 mph N/A   Scattered Clouds
6:15 AM 67.3 °F 59.9 °F 77% 29.62 in 10.0 mi SSW 17.3 mph 25.3 mph N/A   Scattered Clouds
6:58 AM 67.3 °F 60.1 °F 78% 29.60 in 10.0 mi SSW 16.1 mph 24.2 mph N/A   Clear
7:16 AM 67.3 °F 60.1 °F 78% 29.61 in 10.0 mi SSW 13.8 mph 24.2 mph N/A   Scattered Clouds
7:35 AM 67.5 °F 60.3 °F 78% 29.62 in 10.0 mi SW 19.6 mph 28.8 mph N/A   Mostly Cloudy
7:36 AM 67.5 °F 60.3 °F 78% 29.62 in 10.0 mi SW 17.3 mph 28.8 mph N/A   Mostly Cloudy
7:55 AM 67.5 °F 60.3 °F 78% 29.61 in 10.0 mi SW 19.6 mph 29.9 mph N/A   Overcast
8:19 AM 67.3 °F 60.8 °F 80% 29.61 in 10.0 mi SW 16.1 mph 25.3 mph N/A   Overcast
8:36 AM 67.1 °F 60.8 °F 80% 29.61 in 10.0 mi SW 18.4 mph 28.8 mph N/A   Overcast
8:55 AM 67.1 °F 61.0 °F 81% 29.62 in 10.0 mi SW 17.3 mph 24.2 mph N/A   Overcast
8:56 AM 67.1 °F 61.0 °F 81% 29.62 in 10.0 mi SW 16.1 mph 24.2 mph N/A   Overcast
9:15 AM 66.7 °F 61.3 °F 83% 29.62 in 10.0 mi SW 17.3 mph 23.0 mph N/A   Overcast
9:16 AM 66.7 °F 61.3 °F 83% 29.62 in 10.0 mi SW 17.3 mph 23.0 mph N/A   Overcast
9:35 AM 66.7 °F 61.3 °F 83% 29.63 in 10.0 mi SW 19.6 mph 24.2 mph N/A   Overcast
9:40 AM 66.7 °F 61.3 °F 83% 29.63 in 10.0 mi SW 16.1 mph 25.3 mph N/A   Overcast
9:57 AM 67.1 °F 61.3 °F 82% 29.64 in 10.0 mi WSW 20.7 mph 27.6 mph N/A   Overcast
10:16 AM 67.1 °F 61.5 °F 82% 29.63 in 10.0 mi SW 17.3 mph 23.0 mph N/A   Overcast
10:35 AM 66.7 °F 61.5 °F 83% 29.64 in 10.0 mi WSW 19.6 mph 25.3 mph N/A   Mostly Cloudy
10:55 AM 68.9 °F 62.1 °F 79% 29.63 in 10.0 mi SW 18.4 mph 27.6 mph N/A   Scattered Clouds
10:56 AM 68.9 °F 62.1 °F 79% 29.63 in 10.0 mi WSW 18.4 mph 27.6 mph N/A   Scattered Clouds
11:19 AM 69.6 °F 62.1 °F 77% 29.63 in 10.0 mi WSW 16.1 mph 23.0 mph N/A   Scattered Clouds
11:37 AM 70.2 °F 62.6 °F 77% 29.64 in 10.0 mi WSW 13.8 mph 24.2 mph N/A   Scattered Clouds
11:55 AM 69.6 °F 62.8 °F 79% 29.64 in 10.0 mi WSW 15.0 mph 26.5 mph N/A   Scattered Clouds
12:15 PM 69.1 °F 62.8 °F 80% 29.64 in 10.0 mi WSW 18.4 mph 24.2 mph N/A   Scattered Clouds
12:35 PM 70.2 °F 62.8 °F 77% 29.64 in 10.0 mi WSW 15.0 mph 20.7 mph N/A   Clear
12:58 PM 70.3 °F 63.5 °F 79% 29.65 in 10.0 mi WSW 15.0 mph 20.7 mph N/A   Clear
1:16 PM 69.8 °F 63.0 °F 79% 29.64 in 10.0 mi WSW 15.0 mph 23.0 mph N/A   Clear
1:35 PM 70.5 °F 63.1 °F 77% 29.65 in 10.0 mi WSW 15.0 mph 25.3 mph N/A   Clear
1:36 PM 70.5 °F 63.3 °F 78% 29.65 in 10.0 mi WSW 17.3 mph 24.2 mph N/A   Clear
1:55 PM 71.1 °F 61.7 °F 72% 29.65 in 10.0 mi WSW 15.0 mph 25.3 mph N/A   Clear
2:19 PM 70.9 °F 62.6 °F 75% 29.65 in 10.0 mi WSW 16.1 mph 20.7 mph N/A   Clear
2:37 PM 71.8 °F 61.7 °F 70% 29.65 in 10.0 mi WSW 11.5 mph 19.6 mph N/A   Clear
2:55 PM 72.7 °F 61.3 °F 67% 29.65 in 10.0 mi WSW 16.1 mph 23.0 mph N/A   Clear
2:56 PM 72.7 °F 61.5 °F 68% 29.65 in 10.0 mi WSW 16.1 mph 23.0 mph N/A   Clear
3:15 PM 72.7 °F 61.9 °F 69% 29.65 in 10.0 mi WSW 12.7 mph 19.6 mph N/A   Clear
3:16 PM 72.7 °F 61.9 °F 69% 29.65 in 10.0 mi WSW 13.8 mph 19.6 mph N/A   Clear
3:35 PM 72.0 °F 61.2 °F 69% 29.65 in 10.0 mi WSW 12.7 mph 19.6 mph N/A   Clear
3:58 PM 71.6 °F 59.4 °F 65% 29.65 in 10.0 mi WSW 13.8 mph 19.6 mph N/A   Clear
4:16 PM 72.0 °F 59.0 °F 64% 29.65 in 10.0 mi WSW 11.5 mph - N/A   Clear
4:35 PM 71.4 °F 58.8 °F 64% 29.66 in 10.0 mi WSW 11.5 mph 16.1 mph N/A   Clear
4:36 PM 71.4 °F 59.0 °F 65% 29.66 in 10.0 mi WSW 12.7 mph 16.1 mph N/A   Clear
4:55 PM 70.7 °F 57.9 °F 64% 29.66 in 10.0 mi West 8.1 mph - N/A   Clear
4:56 PM 70.7 °F 58.1 °F 64% 29.66 in 10.0 mi West 8.1 mph - N/A   Clear
5:19 PM 70.7 °F 55.6 °F 59% 29.67 in 10.0 mi West 10.4 mph 18.4 mph N/A   Clear
5:37 PM 70.5 °F 54.5 °F 57% 29.67 in 10.0 mi WNW 8.1 mph 19.6 mph N/A   Clear
5:55 PM 70.2 °F 52.3 °F 53% 29.68 in 10.0 mi WNW 8.1 mph - N/A   Clear
5:56 PM 70.2 °F 52.3 °F 53% 29.68 in 10.0 mi WNW 8.1 mph - N/A   Clear
6:15 PM 69.4 °F 52.0 °F 54% 29.69 in 10.0 mi WNW 9.2 mph 18.4 mph N/A   Clear
6:16 PM 69.4 °F 52.0 °F 54% 29.69 in 10.0 mi WNW 9.2 mph 18.4 mph N/A   Clear
6:35 PM 67.3 °F 53.2 °F 61% 29.70 in 10.0 mi West 6.9 mph - N/A   Clear
6:40 PM 67.1 °F 53.2 °F 61% 29.70 in 10.0 mi WNW 5.8 mph - N/A   Clear
6:58 PM 66.9 °F 52.3 °F 59% 29.70 in 10.0 mi WNW 8.1 mph 16.1 mph N/A   Clear
7:16 PM 67.3 °F 50.9 °F 56% 29.70 in 10.0 mi WNW 9.2 mph - N/A   Clear
7:35 PM 67.1 °F 51.1 °F 56% 29.70 in 10.0 mi WNW 10.4 mph - N/A   Clear
7:55 PM 67.1 °F 50.9 °F 56% 29.71 in 10.0 mi WNW 9.2 mph - N/A   Clear
7:56 PM 67.1 °F 50.7 °F 56% 29.71 in 10.0 mi WNW 10.4 mph - N/A   Clear
8:19 PM 66.7 °F 50.2 °F 55% 29.72 in 10.0 mi West 8.1 mph - N/A   Clear
8:37 PM 66.6 °F 49.8 °F 55% 29.72 in 10.0 mi WNW 10.4 mph 16.1 mph N/A   Clear
8:55 PM 66.6 °F 50.0 °F 55% 29.72 in 10.0 mi WNW 10.4 mph 16.1 mph N/A   Clear
9:15 PM 66.4 °F 50.0 °F 56% 29.73 in 10.0 mi WNW 8.1 mph - N/A   Clear
9:16 PM 66.4 °F 50.0 °F 56% 29.73 in 10.0 mi WNW 8.1 mph - N/A   Clear
9:35 PM 66.4 °F 49.3 °F 54% 29.73 in 10.0 mi West 8.1 mph - N/A   Clear
9:40 PM 66.4 °F 48.7 °F 53% 29.73 in 10.0 mi West 6.9 mph - N/A   Clear
9:58 PM 66.2 °F 49.1 °F 54% 29.74 in 10.0 mi WNW 8.1 mph - N/A   Clear
10:16 PM 66.4 °F 48.4 °F 52% 29.75 in 10.0 mi WNW 6.9 mph - N/A   Scattered Clouds
10:35 PM 66.2 °F 48.2 °F 52% 29.76 in 10.0 mi West 10.4 mph 16.1 mph N/A   Mostly Cloudy
10:55 PM 65.8 °F 49.1 °F 55% 29.76 in 10.0 mi West 5.8 mph - N/A   Overcast
10:56 PM 65.8 °F 49.1 °F 55% 29.76 in 10.0 mi West 3.5 mph - N/A   Overcast
11:19 PM 65.5 °F 50.0 °F 57% 29.76 in 10.0 mi West 5.8 mph - N/A   Mostly Cloudy
11:37 PM 65.5 °F 50.7 °F 59% 29.76 in 10.0 mi West 5.8 mph - N/A   Scattered Clouds
11:55 PM 65.5 °F 49.6 °F 57% 29.76 in 10.0 mi West 6.9 mph - N/A   Clear
11:56 PM 65.5 °F 49.5 °F 56% 29.76 in 10.0 mi West 6.9 mph - N/A   Clear